Diego Vitale

Chefscout - Triestina
4 Jun 2028
Sonntag
Verarbeitung

Persönlichkeit

Anpassungsfähigkeit (20) Ehrgeiz (3) Kontroverse (9) Loyalität (4) Druck (9) Professionalität (5) Fairness (14) Temperament (18)

Profil

Trainerstil Demokratisch
Lizenz Nationale B
Entschlossenheit 4
Menschenführung 7
Motivation 6
Disziplin 6
Arbeitszufriedenheit
100%
Ermüdung
0%
Rolle Chefscout
Gehalt 48.6K p/W
Vertrag 14.03.2030

Leistung

Verhalten Gut
Trainingseffektivität
31%
Spielerentwicklung
15%
Verletzungsprävention
40%
Taktische Umsetzung
30%

Aktuell beobachtet

79
Spieler Verein Status Fähigkeit Vertrauen Beobachtet Zuletzt beobachtet Letzte Stimme
Taiwo Olonisakin Dolomiti Bellunesi Aktiv 87 / 93 62% 1 31.01.2028 Befürworten
Riccardo Lodovici Virtus Verona Aktiv 81 / 91 62% 1 24.01.2028 Befürworten
Carlos Cantillo Jaguares Aktiv 126 / 127 40% 1 17.01.2028 -
Patricio Moyano Defensores Aktiv 113 / 120 40% 1 17.01.2028 -
Juan Sebastián Herrera Deportivo La Guaira Aktiv 102 / 120 40% 1 07.01.2028 -
Accursio Bentivegna Casertana Aktiv 103 / 106 40% 1 06.08.2027 -
Matteo Stoppa Campobasso Aktiv 104 / 114 40% 1 06.08.2027 -
Bryan Nouvier Cavese Aktiv 102 / 95 40% 1 31.07.2027 -
Kevin Lasagna Padova Aktiv 126 / 122 40% 1 31.07.2027 -
Luigi Canotto Perugia Aktiv 119 / 108 40% 1 30.07.2027 -
Gianluca Caprari Padova Aktiv 125 / 126 40% 1 30.07.2027 -
Daniele Donnarumma Catania Aktiv 115 / 119 40% 1 29.07.2027 -
Denis Thomalla Aktiv 108 / 94 40% 2 28.07.2027 -
Luca Garritano Monopoli Aktiv 124 / 112 40% 1 28.07.2027 -
Vince Gino Dekker Giana Erminio Aktiv 101 / 95 40% 1 27.07.2027 -
Francesco Rillo Picerno Aktiv 102 / 93 40% 1 27.07.2027 -
Cyrus Christie Bolton Wanderers Aktiv 109 / 109 40% 2 25.07.2027 -
Brando Moruzzi Catania Aktiv 112 / 113 40% 1 24.07.2027 -
César Falletti Ternana Aktiv 122 / 115 40% 1 24.07.2027 -
Leonardo Capezzi Sorrento Aktiv 106 / 118 40% 2 22.07.2027 -
Ciro Loreto Cavese Aktiv 111 / 99 40% 1 22.07.2027 -
Nicolás Schiavi Carrarese Aktiv 108 / 110 40% 1 21.07.2027 -
Emanuele Anastasia Cittadella Aktiv 96 / 104 40% 1 21.07.2027 -
Maiko Candiano Siracusa Aktiv 108 / 102 40% 1 20.07.2027 -
Giuseppe Fella Aktiv 111 / 103 40% 1 20.07.2027 -
Michele Cavion Vicenza Aktiv 99 / 109 40% 1 19.07.2027 -
Destiny Efosa Egharevba Picerno Aktiv 115 / 112 40% 1 19.07.2027 -
Niccolò Pietra Carpi Aktiv 90 / 104 40% 1 18.07.2027 -
Orlando Viteritti Guidonia Montecelio Aktiv 115 / 105 40% 1 17.07.2027 -
Valerio Verre Perugia Aktiv 114 / 117 40% 1 17.07.2027 -
Amedeo Benedetti Trapani Aktiv 107 / 100 40% 1 15.07.2027 -
Mattia De Sciglio Juve Stabia Aktiv 118 / 111 40% 2 14.07.2027 -
Manuele Malotti Livorno Aktiv 93 / 103 40% 1 14.07.2027 -
Max Power Bradford City Aktiv 120 / 110 40% 2 13.07.2027 -
Luca Paganini Vis Pesaro Aktiv 110 / 100 40% 1 04.07.2027 -
Leonardo Zarpellon Virtus Verona Aktiv 98 / 96 40% 1 04.07.2027 -
Manuel Marras Union Brescia Aktiv 107 / 109 40% 2 03.07.2027 -
Eric Lanini Novara Aktiv 101 / 94 40% 1 03.07.2027 -
Diamanka Senghor Mosta Aktiv 94 / 84 40% 2 31.01.2027 -
Mustapha Jah Floriana Aktiv 92 / 90 40% 1 31.01.2027 -
Bismark Asante Ashanti Gold Aktiv 103 / 89 40% 1 29.01.2027 -
Stephen Amankona Aduana Stars Aktiv 97 / 102 40% 1 28.01.2027 -
Claudio Morra Vicenza Aktiv 107 / 117 40% 2 24.01.2027 -
Miloš Bočić Altamura Aktiv 98 / 97 40% 1 23.01.2027 -
Rodin Quiñónes MTK Budapest Aktiv 106 / 98 40% 2 22.01.2027 -
Alexis Ferrante Ternana Aktiv 115 / 112 40% 1 22.01.2027 -
King Udoh Pro Patria Aktiv 94 / 100 40% 1 21.01.2027 -
Michael De Marchi Pergolettese Aktiv 91 / 100 40% 1 21.01.2027 -
Vito Leonetti Casarano Aktiv 91 / 96 40% 1 20.01.2027 -
Bohdan Mohylnyi Inhulets Aktiv 89 / 96 40% 1 20.01.2027 -
Sam Nombe Milton Keynes Dons Aktiv 104 / 104 40% 2 19.01.2027 -
Kagiso Malinga Victoria United Aktiv 106 / 92 40% 1 13.01.2027 -
Patrick Schmidt Tarxien Rainbows Aktiv 100 / 105 40% 1 13.01.2027 -
Sebastian Soto ES Ben Aknoun Aktiv 112 / 105 40% 1 12.01.2027 -
Andrii Boriachuk Nyva Aktiv 111 / 92 40% 1 12.01.2027 -
Cal Jennings ASO Chlef Aktiv 105 / 94 40% 1 11.01.2027 -
Andrés Rentería Jaguares Aktiv 134 / 114 40% 1 30.08.2026 -
Alexis Steimbach Gimnasia La Plata Aktiv 106 / 133 40% 1 28.08.2026 -
Agustín Amado Boston River Aktiv 112 / 105 40% 1 27.08.2026 -
Leonardo Mancuso Mantova Aktiv 125 / 120 40% 1 27.08.2026 -
Segundo Pachamé Plaza Colonia Aktiv 100 / 117 40% 1 24.08.2026 -
Edwin Velasco Deportivo Cali Aktiv 97 / 98 40% 1 24.08.2026 -
Nicolás Sánchez Tristán Suárez Aktiv 122 / 113 40% 1 16.08.2026 -
Enrique Serje Deportivo Pasto Aktiv 105 / 113 40% 1 16.08.2026 -
Fernando Bersano Madryn Aktiv 117 / 121 40% 1 15.08.2026 -
Paolo Marchetti Zadar Aktiv 86 / 91 40% 1 15.08.2026 -
Ulises Vera Quilmes Aktiv 98 / 120 40% 1 14.08.2026 -
Martín Giménez Defensores Unidos Aktiv 129 / 110 40% 1 12.08.2026 -
Sergio Araujo Boca Juniors Aktiv 118 / 133 40% 1 12.08.2026 -
Diego Crego Independiente Rivadavia Aktiv 130 / 129 40% 1 12.08.2026 -
Luis Olivera Defensores Unidos Aktiv 120 / 112 40% 1 12.08.2026 -
Alejandro Cabrera Estudiantes Aktiv 125 / 128 40% 1 10.08.2026 -
Junior Messias Genoa Aktiv 128 / 125 40% 1 08.08.2026 -
Axel Oyola Racing Aktiv 100 / 121 40% 1 07.08.2026 -
Federico Vázquez Trapani Aktiv 110 / 106 40% 1 07.08.2026 -
Federico Murillo San Martín SJ Aktiv 103 / 116 40% 1 05.08.2026 -
Lorenzo Insigne Sampdoria Aktiv 125 / 133 40% 1 05.08.2026 -
Sebastián González San Martín SJ Aktiv 116 / 119 40% 1 04.08.2026 -
Julián Marcioni Colón Aktiv 124 / 106 40% 1 04.08.2026 -